Location: Grums
(59.3529°N, 13.1129°E)
Time: 00:28:10
(UTC+01:00)

SEEDS - Pass Details

Date: 29 November 2021
Orbit: 584 x 600 km, 97.6° (Epoch: 27 January)

Event Time Altitude Azimuth Distance (km) Brightness Sun altitude
Rises 06:06:28 0° 12° (NNE) 2,834 ? -17.1°
Reaches altitude 10° 06:08:47 10° 3° (N) 1,927 ? -16.8°
Maximum altitude 06:12:30 32° 300° (WNW) 1,022 ? -16.3°
Enters shadow 06:12:54 31° 288° (WNW) 1,037 ? -16.3°
